Regional Weather Roundup
Issued by NWS

Home | Current Version | Previous Version | Graphics & Text | Print | Product List | Glossary Off
Versions: 1 2 3 4 5 6 7 8 9 10 11 12 13 14 15 16 17 18 19 20 21 22 23 24 25 26 27 28 29 30 31 32 33 34 35 36 37 38 39 40 41 42 43 44 45 46 47 48 49 50

000
ASUS43 KLSX 291410
RWRMO

WEATHER SUMMARY FOR MISSOURI
NATIONAL WEATHER SERVICE SPRINGFIELD MO
900 AM CDT THU SEP 29 2016

NOTE: "FAIR" INDICATES FEW OR NO CLOUDS BELOW 12,000 FEET WITH NO
       SIGNIFICANT WEATHER AND/OR OBSTRUCTIONS TO VISIBILITY.
       CURRENT SKY AND/OR WEATHER CONDITIONS ARE NOT AVAILABLE FOR
       CHILLICOTHE AND FARMINGTON.

MOZ001>031-035>038-043-044-053-054-291500-
...NORTHERN AND WESTERN MISSOURI...

CITY           SKY/WX    TMP DP  RH WIND       PRES   REMARKS
KANSAS CTY INT SUNNY     54  49  83 N8        30.37R
KANSAS C DTWN  SUNNY     56  50  80 NW6       30.36R
LEE`S SUMMIT   SUNNY     55  50  83 N10       30.35R
ST JOSEPH      SUNNY     54  50  86 N6        30.39R
CHILLICOTHE      N/A     56  51  84 VRB6      30.35R
KIRKSVILLE     SUNNY     54  50  86 N10       30.31R

$$
MOZ066>068-077>081-088>096-101>105-291500-
...SOUTHWEST MISSOURI...

CITY           SKY/WX    TMP DP  RH WIND       PRES   REMARKS
SPRINGFIELD    MOSUNNY   53  49  86 N9        30.29R
JOPLIN         MOSUNNY   53  50  89 N7        30.34R
BRANSON        MOSUNNY   54  48  82 NW6       30.28R

$$
MOZ032>034-039>042-045>050-055>058-069>072-291500-
...CENTRAL MISSOURI...

CITY           SKY/WX    TMP DP  RH WIND       PRES   REMARKS
COLUMBIA       SUNNY     56  50  80 NW15      30.27R
JEFFERSON CITY SUNNY     57  49  74 NW7       30.26S
ROLLA          SUNNY     53  50  89 NW12      30.23R
SEDALIA        SUNNY     56  51  84 N8        30.32R
WHITEMAN AFB   MOSUNNY   54  54 100 NW8       30.31R
OSAGE BEACH    SUNNY     56  51  84 W3        30.28S

$$
MOZ051-052-059>065-291500-
...EAST CENTRAL MISSOURI...

CITY           SKY/WX    TMP DP  RH WIND       PRES   REMARKS
ST LOUIS INTL  CLOUDY    57  50  77 N14       30.18S
SPIRIT OF STL  CLOUDY    57  52  83 NW12      30.19R
ST CHARLES     CLOUDY    56  52  86 NW14      30.18S

$$
MOZ072>076-082>087-097>100-106>115-291500-
...SOUTH CENTRAL AND SOUTHEAST MISSOURI...

CITY           SKY/WX    TMP DP  RH WIND       PRES   REMARKS
CAPE GIRARDEAU CLOUDY    57  50  77 NW7       30.12S
FARMINGTON     CLOUDY    55  50  83 NW10G17   30.18R
POPLAR BLUFF   SUNNY     58  51  78 NW12      30.15R
WEST PLAINS    SUNNY     58  48  69 N8G18     30.24R

$$




USA.gov is the U.S. government's official web portal to all federal, state and local government web resources and services.